QFA47 YPDN-WSSS

Flight info

Callsign QFA47
Flight time N/A
Altitude 32000
Route JULIE6 JULIE DCT IKUMA DCT KIKEM DCT KEVOK/N0454F340 DCT PKN DCT GUKNO DCT ANITO DCT REPOV REPOV2A
Aircraft B738/M-SDE2E3FGHIRWXY/LB1

Departure

Time 2026-05-01 15:07
Airport Darwin International Airport / RAAF Darwin (YPDN)

Arrival

Time N/A
Airport Singapore Changi Airport (WSSS)
Time Latitude Longitude Altitude Speed Heading
2026-05-01 14:20 -12.40911 130.87829 89 ft 0 kts 19°
2026-05-01 14:56 -12.40934 130.87822 90 ft 4 kts
2026-05-01 14:56 -12.40960 130.87822 92 ft 4 kts 342°
2026-05-01 14:56 -12.40977 130.87834 92 ft 3 kts 283°
2026-05-01 14:57 -12.40978 130.87837 93 ft 1 kts 280°
2026-05-01 15:00 -12.40978 130.87836 92 ft 1 kts 280°
2026-05-01 15:00 -12.40975 130.87820 92 ft 4 kts 280°
2026-05-01 15:00 -12.40968 130.87782 91 ft 7 kts 279°
2026-05-01 15:01 -12.40959 130.87726 89 ft 9 kts 280°
2026-05-01 15:01 -12.40956 130.87660 91 ft 9 kts 255°
2026-05-01 15:01 -12.40994 130.87608 90 ft 9 kts 218°
2026-05-01 15:01 -12.41052 130.87583 89 ft 9 kts 198°
2026-05-01 15:02 -12.41110 130.87563 91 ft 9 kts 199°
2026-05-01 15:02 -12.41148 130.87549 89 ft 9 kts 200°
2026-05-01 15:02 -12.41230 130.87520 89 ft 13 kts 198°
2026-05-01 15:02 -12.41324 130.87487 91 ft 16 kts 199°
2026-05-01 15:03 -12.41431 130.87448 91 ft 16 kts 205°
2026-05-01 15:03 -12.41492 130.87359 89 ft 16 kts 263°
2026-05-01 15:03 -12.41467 130.87253 91 ft 16 kts 289°
2026-05-01 15:03 -12.41432 130.87149 89 ft 15 kts 289°
2026-05-01 15:04 -12.41398 130.87047 92 ft 15 kts 289°
2026-05-01 15:04 -12.41365 130.86952 90 ft 14 kts 289°
2026-05-01 15:04 -12.41333 130.86855 90 ft 15 kts 289°
2026-05-01 15:04 -12.41298 130.86753 90 ft 15 kts 289°
2026-05-01 15:05 -12.41266 130.86657 92 ft 14 kts 289°
2026-05-01 15:05 -12.41234 130.86564 91 ft 14 kts 289°
2026-05-01 15:05 -12.41180 130.86489 90 ft 13 kts 328°
2026-05-01 15:05 -12.41094 130.86478 90 ft 13 kts 13°
2026-05-01 15:06 -12.41012 130.86507 89 ft 12 kts 19°
2026-05-01 15:06 -12.40953 130.86564 91 ft 13 kts 86°
2026-05-01 15:06 -12.40984 130.86671 89 ft 31 kts 109°
2026-05-01 15:06 -12.41131 130.87106 91 ft 97 kts 109°
2026-05-01 15:07 -12.41420 130.87954 89 ft 153 kts 109°
2026-05-01 15:07 -12.41800 130.89118 301 ft 181 kts 108°
2026-05-01 15:07 -12.42192 130.90323 1061 ft 179 kts 108°
2026-05-01 15:07 -12.42610 130.91552 1693 ft 185 kts 108°
2026-05-01 15:08 -12.43036 130.92812 2276 ft 193 kts 108°
2026-05-01 15:08 -12.43495 130.94205 2494 ft 217 kts 108°
2026-05-01 15:08 -12.43988 130.95712 2717 ft 235 kts 108°
2026-05-01 15:08 -12.44513 130.97322 3171 ft 243 kts 108°
2026-05-01 15:09 -12.45066 130.99036 3538 ft 259 kts 105°
2026-05-01 15:09 -12.45196 131.00875 3958 ft 262 kts 81°
2026-05-01 15:09 -12.44504 131.02586 4007 ft 264 kts 53°
2026-05-01 15:09 -12.43059 131.03748 4330 ft 269 kts 27°
2026-05-01 15:10 -12.41229 131.04237 5018 ft 278 kts
2026-05-01 15:10 -12.37291 131.04151 6330 ft 287 kts
2026-05-01 15:10 -12.35304 131.04090 6972 ft 289 kts
2026-05-01 15:11 -12.33281 131.04037 7640 ft 291 kts
2026-05-01 15:11 -12.29589 131.02388 7993 ft 304 kts 320°
2026-05-01 15:11 -12.28184 131.00783 7986 ft 305 kts 297°
2026-05-01 15:12 -12.27434 130.98759 8324 ft 304 kts 288°
2026-05-01 15:12 -12.26101 130.94643 9778 ft 304 kts 289°
2026-05-01 15:12 -12.25432 130.92608 10324 ft 310 kts 289°
2026-05-01 15:13 -12.23130 130.85750 10814 ft 365 kts 289°
2026-05-01 15:14 -12.22538 130.80581 11798 ft 372 kts 268°
2026-05-01 15:14 -12.22595 130.77937 12362 ft 373 kts 268°
2026-05-01 15:14 -12.22676 130.72582 13369 ft 379 kts 269°
2026-05-01 15:15 -12.22714 130.67153 14289 ft 384 kts 269°
2026-05-01 15:15 -12.22743 130.61677 15116 ft 390 kts 269°
2026-05-01 15:16 -12.22771 130.56096 15939 ft 395 kts 270°
2026-05-01 15:16 -12.21679 130.50631 16740 ft 399 kts 298°
2026-05-01 15:17 -12.19043 130.45617 17580 ft 402 kts 300°
2026-05-01 15:18 -12.14996 130.38028 18695 ft 409 kts 299°
2026-05-01 15:18 -12.13644 130.35458 19030 ft 411 kts 299°
2026-05-01 15:19 -12.09569 130.27662 20006 ft 418 kts 299°
2026-05-01 15:19 -12.06837 130.22426 20643 ft 422 kts 299°
2026-05-01 15:19 -12.05452 130.19774 20954 ft 424 kts 299°
2026-05-01 15:20 -12.02656 130.14423 21556 ft 428 kts 299°
2026-05-01 15:20 -12.01248 130.11728 21854 ft 430 kts 299°
2026-05-01 15:20 -11.99835 130.09025 22161 ft 432 kts 299°
2026-05-01 15:21 -11.98417 130.06315 22454 ft 434 kts 299°
2026-05-01 15:21 -11.97009 130.03623 22732 ft 436 kts 299°
2026-05-01 15:21 -11.95575 130.00883 22993 ft 438 kts 299°
2026-05-01 15:21 -11.94134 129.98129 23249 ft 441 kts 299°
2026-05-01 15:22 -11.91229 129.92581 23746 ft 444 kts 299°
2026-05-01 15:22 -11.89784 129.89823 24007 ft 444 kts 299°
2026-05-01 15:22 -11.88326 129.87041 24278 ft 444 kts 299°
2026-05-01 15:23 -11.86867 129.84255 24529 ft 444 kts 299°
2026-05-01 15:23 -11.85404 129.81466 24770 ft 445 kts 299°
2026-05-01 15:23 -11.83942 129.78677 25001 ft 446 kts 299°
2026-05-01 15:23 -11.82473 129.75876 25260 ft 446 kts 299°
2026-05-01 15:24 -11.81501 129.74024 25434 ft 446 kts 299°
2026-05-01 15:24 -11.80030 129.71223 25668 ft 447 kts 299°
2026-05-01 15:24 -11.78556 129.68415 25901 ft 447 kts 299°
2026-05-01 15:24 -11.77084 129.65615 26105 ft 449 kts 298°
2026-05-01 15:25 -11.75604 129.62798 26318 ft 450 kts 298°
2026-05-01 15:25 -11.74142 129.60017 26524 ft 450 kts 298°
2026-05-01 15:25 -11.72657 129.57191 26748 ft 451 kts 298°
2026-05-01 15:25 -11.71174 129.54372 26961 ft 452 kts 298°
2026-05-01 15:26 -11.69688 129.51545 27162 ft 452 kts 298°
2026-05-01 15:26 -11.68198 129.48713 27354 ft 453 kts 298°
2026-05-01 15:26 -11.66702 129.45870 27547 ft 454 kts 298°
2026-05-01 15:26 -11.65209 129.43033 27750 ft 454 kts 298°
2026-05-01 15:27 -11.63709 129.40183 27941 ft 455 kts 298°
2026-05-01 15:27 -11.62207 129.37332 28100 ft 456 kts 298°
2026-05-01 15:27 -11.60703 129.34476 28273 ft 457 kts 298°
2026-05-01 15:28 -11.57708 129.28793 28637 ft 458 kts 298°
2026-05-01 15:28 -11.56192 129.25917 28782 ft 459 kts 298°
2026-05-01 15:28 -11.54675 129.23042 28958 ft 460 kts 298°
2026-05-01 15:29 -11.51653 129.17312 29465 ft 457 kts 298°
2026-05-01 15:29 -11.50168 129.14500 29745 ft 455 kts 298°
2026-05-01 15:29 -11.47171 129.08825 30152 ft 454 kts 298°
2026-05-01 15:30 -11.44675 129.04100 30456 ft 453 kts 298°
2026-05-01 15:31 -11.38221 128.91896 31305 ft 450 kts 298°
2026-05-01 15:31 -11.35244 128.86271 31690 ft 450 kts 298°
2026-05-01 15:32 -11.32270 128.80655 32094 ft 449 kts 298°
2026-05-01 15:32 -11.29324 128.75097 32478 ft 448 kts 298°
2026-05-01 15:33 -11.24881 128.66717 33073 ft 447 kts 298°
2026-05-01 15:34 -11.20466 128.58399 33646 ft 446 kts 298°